Location: Bandys
(35.4750°N, 81.0830°W)
Time: 19:47:30
(UTC-05:00)

Daily predictions for brighter satellites

Satellite Brightness Start Highest point End
(mag) Time Altitude Azimuth Time Altitude Azimuth Time Altitude Azimuth
AQUARIUS 4.5 17:31:46 10° SE 17:36:01 45° ENE 17:40:19 10° N
NOSS 3-3 (A) 4.3 17:30:13 10° S 17:36:04 50° ESE 17:42:17 10° NE
NOSS 3-3 (C) 4.3 17:30:20 10° S 17:36:10 50° ESE 17:42:24 10° NE
USA 32 4.1 17:31:06 10° SSE 17:36:13 58° E 17:41:20 10° NNE
Ariane Rocket 4.5 17:31:42 10° S 17:36:31 43° W 17:41:21 10° NNW
ISS -1.1 17:35:50 10° WNW 17:38:17 19° NNW 17:40:44 10° NNE
Cosmos 1346 Rocket 4.2 17:38:38 10° SE 17:41:21 18° E 17:44:03 10° NE
SL-8 Rocket 4.0 17:35:16 10° N 17:41:23 64° E 17:47:28 10° SSE
IDEFIX/ARIANE 42P 2.6 17:39:13 10° SSE 17:44:17 58° ENE 17:49:23 10° N
CORIOLIS 4.3 17:39:31 10° SSE 17:44:45 52° ENE 17:49:59 10° N
Cosmos 1844 3.7 17:40:04 10° SSW 17:45:38 87° WNW 17:51:14 10° NNE
ATLAS 2AS CENTAUR R/B 3.1 17:39:53 10° NNW 17:47:46 55° NE 17:55:05 10° SE
Cosmos 494 Rocket 4.4 17:43:21 10° N 17:48:17 40° ENE 17:53:12 10° SE
Cosmos 1455 Rocket 3.4 17:46:09 10° N 17:50:22 44° E 17:54:36 10° SSE
BREEZE-M DEB (TANK) 3.4 17:45:04 10° NW 17:51:22 89° WSW 17:54:58 10° SE
SKYMED 2 4.5 17:47:43 10° NE 17:51:30 29° E 17:55:15 10° SSE
Cosmos 2366 rocket 4.1 17:46:24 10° N 17:52:39 57° E 17:58:48 10° SSE
CZ-3B DEB 2.2 17:50:11 10° WSW 17:53:17 57° NW 18:00:54 10° NE
Cosmos 1959 Rocket 4.5 17:50:12 10° N 17:56:23 71° E 18:02:36 10° SSE
MSX 4.0 17:51:27 10° SSE 17:57:00 52° ENE 18:02:34 10° N
Cosmos 2218 Rocket 4.0 17:51:02 10° N 17:57:18 72° E 18:03:28 10° SSE
Delta 2 Rocket 4.1 17:53:57 10° SW 17:57:26 39° SSE 18:00:59 12° E
CZ-4 R/B 1.9 17:57:05 10° S 18:01:15 66° W 18:05:23 10° NNW
Cosmos 2278 Rocket 2.2 17:56:30 10° SSW 18:02:07 77° ESE 18:07:47 10° NNE
SMAP 3.1 17:57:30 10° SSE 18:02:09 89° NE 18:06:50 10° NNW
Thor Agena Rocket 3.9 17:58:29 10° N 18:03:41 69° WNW 18:08:53 10° SSW
Cosmos 1238 Rocket 2.3 18:02:50 10° SSW 18:05:47 70° W 18:08:45 10° N
SL-24 DEB 4.4 18:01:41 10° NNE 18:06:20 54° E 18:10:54 10° S
SJ-12 4.3 18:02:26 10° S 18:06:30 68° W 18:10:36 10° NNW
OTV 4 1.7 18:04:48 10° W 18:07:38 39° SSW 18:10:28 10° SE
CZ-2C R/B 2.6 18:03:26 10° S 18:08:22 78° WSW 18:13:29 10° NNW
MONITOR-E 4.4 18:08:18 10° SSE 18:11:24 50° ENE 18:14:30 10° N
Cosmos 1975 3.0 18:08:46 10° N 18:12:44 50° E 18:16:38 10° SSE
COSMOS 2406 4.5 18:07:43 10° NW 18:13:10 45° WSW 18:18:35 10° S
Meteor 1-12 Rocket 4.3 18:07:50 10° N 18:13:39 71° E 18:19:31 10° SSE
Cosmos 2251 Rocket 3.5 18:09:38 10° NNW 18:15:01 85° ENE 18:20:19 10° SSE
COSMOS 2441 4.3 18:15:04 10° SSE 18:19:53 71° ENE 18:24:45 10° N
SL-27 R/B 3.6 18:17:57 10° NNW 18:21:30 49° WSW 18:24:59 10° S
Genesis I 4.2 18:19:33 10° N 18:22:54 26° NE 18:23:19 25° ENE
Cosmos 1484 Rocket 2.6 18:23:49 10° SSE 18:27:33 67° ENE 18:31:17 10° N
Meteor 1-13 Rocket 4.3 18:24:21 10° S 18:29:50 57° E 18:35:29 10° NNE
Cosmos 2082 Rocket 2.9 18:25:35 10° N 18:30:34 31° ENE 18:33:41 19° ESE
DMSP B5D1-3 4.5 18:26:37 10° NNE 18:31:44 63° ESE 18:36:48 10° S
Cosmos 1833 Rocket 3.5 18:27:26 10° N 18:32:09 27° ENE 18:33:05 26° ENE
NOSS 2-1 (D) 3.7 18:28:51 10° S 18:32:26 41° ESE 18:33:31 33° ENE
NOSS 2-1 (C) 3.7 18:29:32 10° S 18:33:09 41° ESE 18:34:09 34° ENE
Cosmos 1743 4.3 18:35:15 20° SE 18:35:15 20° SE 18:36:47 10° SE
Meteor 2-21 4.4 18:28:06 10° N 18:34:15 67° E 18:40:19 10° SSE
COSMO-SKYMED 1 2.7 18:35:16 10° N 18:39:36 75° WNW 18:43:55 10° SSW
Cosmos 1500 3.2 18:39:02 10° N 18:42:52 82° W 18:46:42 10° S
GRACE-2 3.9 18:43:46 10° S 18:46:33 76° W 18:46:43 72° NW
Nadezhda 3 Rocket 3.9 18:40:40 10° S 18:46:50 89° E 18:53:07 10° N
GRACE-1 4.0 18:44:12 10° S 18:46:58 73° W 18:47:13 66° NW
Meteor 1-28 Rocket 3.0 18:45:29 31° NNE 18:47:14 77° E 18:51:00 10° S
NOSS 2-1 (E) 3.2 18:47:53 10° SSW 18:51:40 63° ESE 18:52:08 58° E
Timation 1 Rocket 4.2 18:45:53 10° SSW 18:51:48 76° ESE 18:55:27 25° NNE
GEOS 3 Rocket 3.5 18:53:31 27° ESE 18:56:12 61° NE 19:01:14 10° NNW
Meteor 2-14 Rocket 4.3 18:50:07 10° N 18:56:17 74° E 19:02:23 10° SSE
Meteor 2-4 Rocket 3.6 18:51:32 10° S 18:56:47 54° E 18:58:30 38° NE
Tiangong 1 2.0 18:54:46 10° W 18:57:12 42° NW 18:57:12 42° NW
OAO 1 4.4 18:54:10 10° W 18:59:40 85° S 19:01:18 47° E
Cosmos 2056 Rocket 3.9 18:55:55 10° S 19:00:49 43° ESE 19:00:49 43° ESE
Cosmos 1025 Rocket 2.9 19:03:09 10° S 19:07:27 76° ESE 19:07:27 76° ESE
ATLAS 3B CENTAUR R/B 3.6 18:54:21 10° WSW 19:12:28 57° S 19:15:57 33° SE
COSMOS 2487 3.2 19:09:34 10° NNW 19:13:00 53° W 19:13:00 53° W
Cosmos 921 Rocket 3.6 19:09:06 10° SSW 19:13:13 54° WNW 19:14:34 37° NNW
Cosmos 1624 Rocket 3.9 19:09:39 10° S 19:14:32 64° ESE 19:14:32 64° ESE
Meteor 2-16 Rocket 4.5 19:12:52 10° N 19:18:58 79° W 19:25:02 10° S
Cosmos 1371 Rocket 3.9 19:13:49 10° SSW 19:19:10 90° NW 19:20:09 61° NNE
BREEZE M DEB (TANK) 4.4 19:17:08 10° NW 19:21:39 42° NE 19:21:54 42° NE
NOSS 3-4 (A) 4.4 19:16:49 10° NNW 19:21:59 36° NNE 19:21:59 36° NNE
NOSS 3-4 (C) 4.5 19:16:56 10° NNW 19:22:03 36° NNE 19:22:03 36° NNE
Cosmos 1934 Rocket 4.2 19:41:24 10° NNW 19:47:33 69° W 19:53:47 10° S
Cosmos 2082 Rocket 3.7 20:09:36 10° NW 20:14:34 32° WSW 20:15:50 29° SW
Cosmos 1833 Rocket 4.1 20:10:59 10° NW 20:14:56 33° WNW 20:14:56 33° WNW
